Location: Newark
(50.5930°N, 3.6720°W)
Time: 00:58:22
(UTC+00:00)

Envisat - Pass Details

Date: 26 August 2019
Orbit: 764 x 766 km, 98.1° (Epoch: 17 October)

Event Time Altitude Azimuth Distance (km) Brightness Sun altitude
Rises 19:53:05 0° 216° (SW) 3,224 6.4 -6.7°
Reaches altitude 10° 19:56:25 10° 239° (WSW) 2,304 6.0 -7.2°
Maximum altitude 19:59:16 15° 274° (W) 1,983 6.3 -7.6°
Drops below altitude 10° 20:02:08 10° 308° (NW) 2,314 7.1 -8.0°
Sets 20:05:31 0° 332° (NNW) 3,247 7.3 -8.5°
